NOAA 16 DEB, 41283

Orbit data source: Space-Track

NOAA 16 DEB, 41283 is space debris in SSO originally from a launch on Thu, 21 Sep 2000 UTC launched from the Air Force Western Test Range (AFWTR). Debris objects in space refer to the collection of defunct objects orbiting the Earth. Examples of debris include non-operational satellites, rocket bodies, and fragments generated from explosions, collisions, or faulty payload assembly.

Loading next visibility...
Identifier
41283, 2000-055GK
Orbit
SSO
Last TLE update
14 hours ago
Origin
Manufacturer
Unknown
Mission
Spacecraft
Bus & Motor
Unknown
Mass
Unknown
Launch date (UTC)
2000-09-21 (25 years ago)
Launch vehicle
Unknown
Launch site
Air Force Western Test Range (AFWTR)
Object type
Payload
Rocket body
Debris
Shape & HBR
Unknown
Radar Cross Section
Small (<0.1 m²)

Expand to show TLE details & history

TLE from 14 hours ago
0 NOAA 16 DEB
1 41283U 00055GK  25186.17004089  .00001797  00000-0  10775-2 0  9995
2 41283  98.8141 167.2403 0058792 257.0345 102.4254 14.07399492487792
Epoch: 2025-07-05T04:04Z
TLE epoch observation values (Epoch: 2025-07-05T04:04:51.532Z)
Latitude
-0.00011°
Longitude
-177.38633°
Altitude
880.585 km
Speed
7.407 km/s
True Right ascension
11h 08m 57s
True Declination
0° 00' 00"
Sunlit
Object was in daylight at epoch
Visualization orbit readout
Latitude
-26.43354°
Longitude
-172.43903°
Altitude
869.019 km
Speed
7.421 km/s
Apparent Right ascension
13h 57m 55s
Apparent Declination
-42° 00' 14"
Sunlit
Object is in daylight
Visualization observer readout
Local Sidereal Time
05:31:39
Azimuth
111.006° ESE
Elevation
-50.259°
Doppler factor
1
Orbital elements
Apogee altitude
908.051 km
Perigee altitude
822.878 km
Semi-major axis
7,243.602 km
Eccentricity
0.00588
Inclination
98.8141°
RAAN
167.2403°
Arg. of periapsis
257.0345°
True anomaly
Unknown
Mean anomaly
102.4254°
Eccentric anomaly
Unknown
Mean motion
3.52056 °/min
Orbital period
102.26 mins
BSTAR
0.0010775
Loading maneuver chart data...
Loading SW <> Apogee altitude chart data...
Loading historical data...
Loading historical data...
Loading historical data...
Loading historical data...
Loading historical data...
Loading historical data...
Loading historical data...

NOAA 16 DEB Visibility forecast

Observer location: undefined°, undefined°

Span
Click to sort rows by Start time (UTC) header in descending order
Start Az.
Max El. time (UTC)
Max El. Az.
Max El.
End time (UTC)
End Az.
7 mins2025-07-05 21:18:15.972Z101.511° ESE2025-07-05 21:22:15.972Z55.835° ENE17.645°2025-07-05 21:25:15.972Z22.66° NE
9 mins2025-07-05 22:58:15.972Z179.357° S2025-07-05 23:02:15.972Z254.771° W42.479°2025-07-05 23:07:15.972Z339.128° N
10 mins2025-07-06 11:23:15.972Z22.494° NNE2025-07-06 11:28:15.972Z128.323° SE41.295°2025-07-06 11:33:15.972Z183.111° SSW
5 mins2025-07-06 13:06:15.972Z324.13° NNW2025-07-06 13:08:15.972Z298.709° NW17.819°2025-07-06 13:11:15.972Z262.917° W
|